Weather History for KFTK - July, 2013

Change the Weather History Date:

Friday, July 26, 2013

  Actual Average Record
Temperature  
Mean Temperature 69 °F -  
Max Temperature 81 °F 83 °F 99 °F (2012)
Min Temperature 57 °F 65 °F 57 °F (2013)
Cooling Degree Days 4    
Growing Degree Days 19 (Base 50)    
Moisture  
Dew Point 61 °F    
Average Humidity 75    
Maximum Humidity 99    
Minimum Humidity 51    
Precipitation  
Precipitation 0.00 in - - ()
Sea Level Pressure  
Sea Level Pressure 30.04 in    
Wind  
Wind Speed 2 mph (WSW)    
Max Wind Speed 9 mph    
Max Gust Speed -    
Visibility 9 miles    
Events Rain    
Averages and records for this station are not official NWS values.
T = Trace of Precipitation, MM = Missing Value Source: NWS Daily Summary

Daily Weather History Graph

Daily Weather History Graph

Search for Another Location

Airport or City:

Trip Planner

Search our weather history database for the weather conditions in past years. The results will help you decide how hot, cold, wet, or windy it might be!

Date:

Astronomy

Jul. 26, 2013 Rise Set
Actual Time 6:42 AM EDT 8:58 PM EDT
Civil Twilight 6:12 AM EDT 9:27 PM EDT
Nautical Twilight 5:36 AM EDT 10:03 PM EDT
Astronomical Twilight 4:56 AM EDT 10:43 PM EDT
Moon 11:18 PM EDT (7/26) 11:11 AM EDT (7/26)
Length of Visible Light 15h 14m
Length of Day
14h 15m
Waning Gibbous, 80% of the Moon is Illuminated
Jul 26
Waning Gibbous
Jul 29
Last Quarter
Aug 6
New
Aug 14
First Quarter
Aug 20
Full

Hourly Weather History & Observations

Time (EDT) Temp. Heat Index Dew Point Humidity Pressure Visibility Wind Dir Wind Speed Gust Speed Precip Events Conditions
12:58 AM 62.4 °F - 60.1 °F 92% 30.08 in 10.0 mi NNE 3.5 mph - N/A   Clear
1:58 AM 63.1 °F - 58.5 °F 85% 30.07 in 10.0 mi Calm Calm - N/A   Clear
2:58 AM 60.3 °F - 58.8 °F 95% 30.08 in 10.0 mi Calm Calm - N/A   Clear
3:58 AM 59.2 °F - 58.1 °F 96% 30.05 in 10.0 mi Calm Calm - N/A   Clear
4:58 AM 58.8 °F - 57.7 °F 96% 30.07 in 10.0 mi Calm Calm - N/A   Clear
5:58 AM 58.1 °F - 57.2 °F 97% 30.06 in 8.0 mi Calm Calm - N/A   Clear
6:58 AM 57.7 °F - 57.2 °F 98% 30.06 in 6.0 mi Calm Calm - N/A   Clear
7:58 AM 59.7 °F - 59.5 °F 99% 30.07 in 10.0 mi Calm Calm - N/A   Clear
8:58 AM 67.5 °F - 60.1 °F 77% 30.08 in 10.0 mi Calm Calm - N/A   Clear
9:58 AM 72.0 °F - 60.3 °F 67% 30.09 in 10.0 mi Variable 1.2 mph - N/A   Clear
10:58 AM 74.8 °F - 60.6 °F 61% 30.08 in 10.0 mi SSE 5.8 mph - N/A   Clear
11:58 AM 77.0 °F - 59.4 °F 54% 30.08 in 10.0 mi Variable 3.5 mph - N/A   Clear
12:58 PM 79.0 °F - 60.6 °F 53% 30.06 in 10.0 mi Variable 3.5 mph - N/A   Scattered Clouds
1:58 PM 79.3 °F - 60.1 °F 52% 30.04 in 10.0 mi SSW 9.2 mph - N/A   Scattered Clouds
2:58 PM 80.8 °F 81.8 °F 61.5 °F 52% 30.04 in 10.0 mi Variable 4.6 mph - N/A   Scattered Clouds
3:58 PM 81.1 °F 82.0 °F 61.5 °F 51% 30.03 in 10.0 mi SW 8.1 mph - N/A   Mostly Cloudy
4:58 PM 80.1 °F 81.0 °F 60.6 °F 51% 30.03 in 10.0 mi SSW 5.8 mph - N/A   Clear
5:58 PM 81.9 °F 82.8 °F 62.1 °F 51% 30.01 in 10.0 mi West 8.1 mph - N/A   Partly Cloudy
6:58 PM 78.1 °F - 61.5 °F 57% 30.00 in 10.0 mi WSW 5.8 mph - N/A   Clear
7:58 PM 74.5 °F - 66.7 °F 77% 30.01 in 7.0 mi West 3.5 mph - N/A   Mostly Cloudy
8:58 PM 70.9 °F - 65.3 °F 82% 30.00 in 10.0 mi West 3.5 mph - N/A   Mostly Cloudy
9:42 PM 69.8 °F - 66.2 °F 88% 30.00 in 8.0 mi West 2.3 mph - N/A Rain Light Rain
9:58 PM 70.0 °F - 66.0 °F 87% 29.99 in 7.0 mi Calm Calm - N/A   Overcast
10:58 PM 69.3 °F - 64.6 °F 85% 29.99 in 7.0 mi West 1.2 mph - N/A   Mostly Cloudy
11:58 PM 68.5 °F - 63.5 °F 84% 29.99 in 10.0 mi West 5.8 mph - N/A   Mostly Cloudy